Weather History for Thessaloniki, Greece

Change the Weather History Date:

Sunday, December 9, 2012

  Actual Average Record
Temperature  
Mean Temperature 42 °F -  
Max Temperature 50 °F 51 °F 57 °F (2000)
Min Temperature 35 °F 36 °F 28 °F (1998)
Degree Days  
Heating Degree Days 22    
Moisture  
Dew Point 39 °F    
Average Humidity 79    
Maximum Humidity 100    
Minimum Humidity 60    
Precipitation  
Precipitation 0.00 in 0.06 in - ()
Sea Level Pressure  
Sea Level Pressure 29.61 in    
Wind  
Wind Speed 11 mph ()    
Max Wind Speed 23 mph    
Max Gust Speed 34 mph    
Visibility 5.6 miles    
Events Rain    
Averages and records for this station are not official NWS values.
T = Trace of Precipitation, MM = Missing Value Source: Averaged Metar Reports

Daily Weather History Graph

Daily Weather History Graph

Search for Another Location

Airport:

Trip Planner

Search our weather history database for the weather conditions in past years. The results will help you decide how hot, cold, wet, or windy it might be!

Date:

Astronomy

Dec. 09, 2012 Rise Set
Actual Time 7:39 AM EET 5:01 PM EET
Civil Twilight 7:09 AM EET 5:31 PM EET
Nautical Twilight 6:35 AM EET 6:06 PM EET
Astronomical Twilight 6:01 AM EET 6:39 PM EET
Moon 2:50 AM EET (12/9) 1:56 PM EET (12/9)
Length of Visible Light 10h 22m
Length of Day
9h 21m
Waning Crescent, 21% of the Moon is Illuminated
Dec 9
Waning Crescent
Dec 13
New
Dec 20
First Quarter
Dec 28
Full
Jan 5
Last Quarter

Hourly Weather History & Observations

Time (EET) Temp. Windchill Dew Point Humidity Pressure Visibility Wind Dir Wind Speed Gust Speed Precip Events Conditions
12:20 AM 55.4 °F - 50.0 °F 82% 29.56 in 5.0 mi SE 15.0 mph - N/A Rain Light Rain
12:50 AM 55.4 °F - 50.0 °F 82% 29.53 in 4.3 mi SSE 17.3 mph - N/A Rain Light Rain
1:20 AM 55.4 °F - 50.0 °F 82% 29.53 in 4.3 mi SSE 17.3 mph - N/A Rain Light Rain
1:50 AM 48.2 °F - 44.6 °F 87% 29.56 in 2.5 mi West 17.3 mph 28.8 mph N/A Rain Rain
2:00 AM 48 °F - 44 °F 81% 29.57 in 2 mi West 17.3 mph - - Rain Rain
2:20 AM 46.4 °F 41.1 °F 44.6 °F 93% 29.56 in 4.3 mi WNW 11.5 mph - N/A Rain Light Rain
2:50 AM 46.4 °F 44.3 °F 42.8 °F 87% 29.56 in 4.3 mi South 4.6 mph - N/A Rain Light Rain
3:20 AM 46.4 °F 44.3 °F 42.8 °F 87% 29.56 in 5.6 mi South 4.6 mph - N/A   Overcast
3:50 AM 46.4 °F 45.2 °F 44.6 °F 93% 29.56 in 5.0 mi Variable 3.5 mph - N/A   Overcast
4:20 AM 46.4 °F 45.2 °F 44.6 °F 93% 29.56 in 5.0 mi Variable 3.5 mph - N/A   Overcast
4:50 AM 46.4 °F 43.5 °F 44.6 °F 93% 29.56 in 6.2 mi ESE 5.8 mph - N/A   Overcast
5:50 AM 48.2 °F - 44.6 °F 87% 29.53 in 6.2 mi Variable 3.5 mph - N/A   Mostly Cloudy
6:20 AM 48.2 °F - 46.4 °F 93% 29.56 in 6.2 mi West 4.6 mph - N/A   Mostly Cloudy
6:50 AM 48.2 °F - 44.6 °F 87% 29.56 in 6.2 mi SW 4.6 mph - N/A   Mostly Cloudy
7:20 AM 46.4 °F 45.2 °F 46.4 °F 100% 29.56 in 5.0 mi Variable 3.5 mph - N/A   Mostly Cloudy
7:50 AM 46.4 °F - 44.6 °F 93% 29.56 in 5.0 mi Calm Calm - N/A   Mostly Cloudy
8:00 AM 47 °F - 44 °F 86% 29.59 in 5 mi Calm Calm - -   Mist
8:20 AM 46.4 °F - 44.6 °F 93% 29.59 in 5.0 mi Calm Calm - N/A   Mostly Cloudy
8:50 AM 46.4 °F - 44.6 °F 93% 29.59 in 3.7 mi Calm Calm - N/A   Mostly Cloudy
9:20 AM 48.2 °F - 44.6 °F 87% 29.59 in 5.0 mi Calm Calm - N/A   Mostly Cloudy
9:50 AM 50.0 °F - 48.2 °F 94% 29.59 in 6.2 mi NW 9.2 mph - N/A   Mostly Cloudy
10:20 AM 50.0 °F - 46.4 °F 87% 29.62 in 6.2 mi NW 6.9 mph - N/A   Mostly Cloudy
10:50 AM 50.0 °F - 46.4 °F 87% 29.62 in 6.2 mi NW 4.6 mph - N/A   Mostly Cloudy
11:20 AM 50.0 °F - 46.4 °F 87% 29.62 in 6.2 mi NW 13.8 mph - N/A   Mostly Cloudy
11:50 AM 50.0 °F - 42.8 °F 76% 29.59 in 6.2 mi NW 13.8 mph - N/A   Mostly Cloudy
12:20 PM 51.8 °F - 42.8 °F 71% 29.59 in 6.2 mi NW 13.8 mph - N/A   Overcast
12:50 PM 48.2 °F - 41.0 °F 76% 29.59 in 6.2 mi NW 18.4 mph - N/A   Overcast
1:20 PM 48.2 °F - 41.0 °F 76% 29.56 in 6.2 mi NW 17.3 mph - N/A   Overcast
1:50 PM 50.0 °F - 41.0 °F 71% 29.56 in 6.2 mi NW 15.0 mph - N/A   Overcast
2:00 PM 49 °F - 41 °F 66% 29.58 in 6 mi NW 15.0 mph - -   Overcast
2:20 PM 46.4 °F 38.7 °F 39.2 °F 76% 29.56 in 6.2 mi NW 20.7 mph - N/A   Overcast
2:50 PM 46.4 °F 38.5 °F 39.2 °F 76% 29.56 in 6.2 mi NNW 21.9 mph - N/A Rain Light Rain
3:20 PM 48.2 °F - 39.2 °F 71% 29.59 in 6.2 mi NNW 9.2 mph - N/A   Mostly Cloudy
3:50 PM 44.6 °F 38.8 °F 37.4 °F 76% 29.59 in 6.2 mi NW 11.5 mph - N/A   Mostly Cloudy
4:20 PM 44.6 °F 36.9 °F 39.2 °F 81% 29.59 in 6.2 mi NW 18.4 mph - N/A   Mostly Cloudy
4:50 PM 44.6 °F 36.4 °F 37.4 °F 76% 29.59 in 6.2 mi NW 20.7 mph - N/A   Mostly Cloudy
5:20 PM 44.6 °F 37.2 °F 35.6 °F 71% 29.62 in 6.2 mi NNW 17.3 mph 28.8 mph N/A   Mostly Cloudy
5:50 PM 42.8 °F 36.6 °F 33.8 °F 70% 29.62 in 6.2 mi North 11.5 mph - N/A   Mostly Cloudy
6:20 PM 42.8 °F 35.1 °F 32.0 °F 66% 29.65 in 6.2 mi NNW 16.1 mph - N/A   Mostly Cloudy
6:50 PM 41.0 °F 32.8 °F 32.0 °F 70% 29.65 in 6.2 mi NNW 16.1 mph - N/A   Mostly Cloudy
7:20 PM 39.2 °F 30.8 °F 30.2 °F 70% 29.68 in 6.2 mi North 15.0 mph 26.5 mph N/A   Partly Cloudy
7:50 PM 37.4 °F 28.9 °F 28.4 °F 70% 29.68 in 6.2 mi North 13.8 mph 25.3 mph N/A   Scattered Clouds
8:00 PM 38 °F - 29 °F 60% 29.70 in 6 mi North 13.8 mph - -   Partly Cloudy
8:20 PM 37.4 °F 26.9 °F 28.4 °F 70% 29.68 in 6.2 mi NNW 20.7 mph 32.2 mph N/A   Scattered Clouds
8:50 PM 37.4 °F 27.8 °F 28.4 °F 70% 29.71 in 6.2 mi NNW 17.3 mph 28.8 mph N/A   Scattered Clouds
9:20 PM 37.4 °F 26.9 °F 28.4 °F 70% 29.71 in 6.2 mi NNW 20.7 mph 32.2 mph N/A   Scattered Clouds
9:50 PM 37.4 °F 27.8 °F 26.6 °F 65% 29.74 in 6.2 mi NNW 17.3 mph 28.8 mph N/A   Mostly Cloudy
10:20 PM 35.6 °F 25.5 °F 26.6 °F 70% 29.74 in 6.2 mi NNW 17.3 mph 28.8 mph N/A   Mostly Cloudy
10:50 PM 35.6 °F 24.8 °F 24.8 °F 65% 29.74 in 6.2 mi NNW 19.6 mph 31.1 mph N/A   Mostly Cloudy
11:20 PM 35.6 °F 24.8 °F 24.8 °F 65% 29.77 in 6.2 mi NNW 19.6 mph 31.1 mph N/A   Mostly Cloudy
11:50 PM 35.6 °F 24.0 °F 24.8 °F 65% 29.74 in 6.2 mi NNW 23.0 mph 34.5 mph N/A   Mostly Cloudy